Showing default

ASTROCAST-01, 43798

Orbit data source: Space-Track

ASTROCAST-01, 43798 is a payload satellite owned by Astrocast (CH) in SSO that was launched on Mon, 03 Dec 2018 UTC via an FALCON 9 launch vehicle from the Air Force Western Test Range (AFWTR). Payload-class satellites include a variety of spacecraft equipped with specific instruments for various scientific and technological missions. These include communications satellites like Starlink; space stations such as the ISS; scientific satellites like the Hubble; Earth observation satellites from companies like Planet Labs, Umbra, and HawkEye 360; GPS; miniature CubeSats for education and research; and military/defense satellites.

Loading next visibility...
Identifier
43798, 2018-099AS
Orbit
SSO
Country
Flag of CHCH / SWTZ
Related business
Manufacturer
Astrocast
Mission
Operational Commercial Communications
Bus & Motor
CUBESAT 3U, Unknown motor
Mass
5 kg wet, 5 kg dry
Launch date (UTC)
2018-12-03 (8 years ago)
Launch vehicle
FALCON 9
Launch site
Air Force Western Test Range (AFWTR)
Object type
Payload
Rocket body
Debris
Shape & HBR
Box, 0.1 m
Radar Cross Section
0.035 m², Medium (>0.1 m² and < 1m²)

Expand to show TLE details & history
Last TLE update: 2 days ago

TLE from 2 days ago
0 ASTROCAST-01
1 43798U 18099AS  26171.16721600  .00030837  00000-0  55595-3 0  9991
2 43798  97.4361 249.7580 0005325 194.7409 165.3687 15.49711166414890
Epoch: 2026-06-20T04:00Z
TLE epoch observation values (Epoch: 2026-06-20T04:00:47.462Z)
Latitude
-0.00009°
Longitude
-78.82547°
Altitude
424.202 km
Speed
7.655 km/s
True Right ascension
16h 39m 01s
True Declination
0° 00' 00"
Sunlit
Object was in full shadow at epoch
Visualization orbit readout
Latitude
Unknown
Longitude
Unknown
Altitude
Unknown
Speed
Unknown
Apparent Right ascension
Unknown
Apparent Declination
Unknown
Sunlit
N/A
Visualization observer readout
Local Sidereal Time
21:38:37
Azimuth
Unknown
Elevation
Unknown
Doppler factor
Unknown
Orbital elements
Apogee altitude
418.115 km
Perigee altitude
410.881 km
Semi-major axis
6,792.635 km
Eccentricity
0.00053
Inclination
97.4361°
RAAN
249.758°
Arg. of periapsis
194.7409°
True anomaly
165.3841°
Mean anomaly
165.3687°
Eccentric anomaly
165.3764°
Mean motion
3.87691 °/min
Orbital period
92.86 mins
BSTAR
0.00055595
Loading maneuver chart data...
Computing Atmospheric mass density...
Loading historical data...
Loading historical data...
Loading historical data...
Loading historical data...
Loading historical data...
Loading historical data...
Loading historical data...

Documentation

Showing up to 5 results
|